| time (UTC) | temp F | wind direction | speed MPH | gust MPH | rain 1hr in | rain 24hr in | rain mn in | humidity % | barometer mb |
| 20260903195211 | 93 | 318 | 1.0 | 2.0 | 0.00 | 0.00 | 0.00 | 66 | 1014.7 |
| 20260903194207 | 93 | 165 | 5.0 | 6.0 | 0.00 | 0.00 | 0.00 | 69 | 1015.0 |
| 20260903193202 | 91 | 189 | 0.0 | 1.0 | 0.00 | 0.00 | 0.00 | 72 | 1015.4 |
| 20260903192159 | 91 | 248 | 1.0 | 2.0 | 0.00 | 0.00 | 0.00 | 68 | 1015.1 |
| 20260903191155 | 91 | 270 | 2.0 | 2.0 | 0.00 | 0.00 | 0.00 | 67 | 1015.3 |
| 20260903190150 | 92 | 245 | 1.0 | 2.0 | 0.00 | 0.00 | 0.00 | 68 | 1015.4 |
| 20260903185146 | 90 | 264 | 1.0 | 1.0 | 0.00 | 0.00 | 0.00 | 71 | 1015.6 |
| 20260903184144 | 91 | 224 | 0.0 | 0.0 | 0.00 | 0.00 | 0.00 | 73 | 1015.6 |
| 20260903183144 | 89 | 186 | 1.0 | 2.0 | 0.00 | 0.00 | 0.00 | 73 | 1016.2 |
| 20260903182139 | 90 | 278 | 3.0 | 3.0 | 0.00 | 0.00 | 0.00 | 76 | 1016.0 |
| 20260903181138 | 90 | 218 | 0.0 | 0.0 | 0.00 | 0.00 | 0.00 | 74 | 1015.7 |
| 20260903180133 | 88 | 113 | 2.0 | 3.0 | 0.00 | 0.00 | 0.00 | 81 | 1016.2 |
| 20260903175132 | 87 | 287 | 2.0 | 2.0 | 0.00 | 0.00 | 0.00 | 79 | 1016.6 |
| 20260903174128 | 84 | 229 | 0.0 | 0.0 | 0.00 | 0.00 | 0.00 | 84 | 1016.5 |
| 20260903173125 | 84 | 136 | 1.0 | 2.0 | 0.00 | 0.00 | 0.00 | 84 | 1016.7 |
| 20260903172120 | 83 | 217 | 1.0 | 1.0 | 0.00 | 0.00 | 0.00 | 83 | 1016.8 |
| 20260903171116 | 84 | 184 | 1.0 | 2.0 | 0.00 | 0.00 | 0.00 | 81 | 1017.3 |
| 20260903170117 | 84 | 243 | 1.0 | 1.0 | 0.00 | 0.00 | 0.00 | 80 | 1017.8 |
| 20260903165115 | 82 | 191 | 0.0 | 0.0 | 0.00 | 0.00 | 0.00 | 84 | 1017.7 |
| 20260903164112 | 84 | 207 | 1.0 | 1.0 | 0.00 | 0.00 | 0.00 | 80 | 1017.7 |
| 20260903163108 | 85 | 249 | 1.0 | 1.0 | 0.00 | 0.00 | 0.00 | 81 | 1018.0 |
| 20260903162106 | 83 | 290 | 0.0 | 1.0 | 0.00 | 0.00 | 0.00 | 83 | 1018.0 |
| 20260903161102 | 82 | 33 | 2.0 | 3.0 | 0.00 | 0.00 | 0.00 | 84 | 1018.4 |
| 20260903155103 | 82 | 247 | 1.0 | 2.0 | 0.00 | 0.00 | 0.00 | 86 | 1018.5 |
| 20260903154101 | 80 | 275 | 2.0 | 4.0 | 0.00 | 0.00 | 0.00 | 88 | 1018.9 |
| 20260903153058 | 81 | 264 | 2.0 | 4.0 | 0.00 | 0.00 | 0.00 | 89 | 1018.9 |
| 20260903152056 | 81 | 221 | 0.0 | 0.0 | 0.00 | 0.00 | 0.00 | 89 | 1018.0 |
| 20260903151050 | 81 | 221 | 0.0 | 0.0 | 0.00 | 0.00 | 0.00 | 87 | 1018.1 |
| 20260903150046 | 81 | 236 | 0.0 | 0.0 | 0.00 | 0.00 | 0.00 | 86 | 1018.2 |
| 20260903145040 | 81 | 187 | 0.0 | 0.0 | 0.00 | 0.00 | 0.00 | 88 | 1018.2 |
| 20260903144036 | 80 | 229 | 0.0 | 0.0 | 0.00 | 0.00 | 0.00 | 90 | 1017.9 |
| 20260903143033 | 79 | 267 | 0.0 | 0.0 | 0.00 | 0.00 | 0.00 | 89 | 1018.1 |
| 20260903142031 | 78 | 238 | 0.0 | 0.0 | 0.00 | 0.00 | 0.00 | 92 | 1018.1 |
| 20260903141027 | 78 | 254 | 0.0 | 1.0 | 0.00 | 0.00 | 0.00 | 92 | 1018.2 |
| 20260903140023 | 77 | 220 | 0.0 | 0.0 | 0.00 | 0.00 | 0.00 | 93 | 1017.6 |
| 20260903135019 | 77 | 238 | 0.0 | 0.0 | 0.00 | 0.00 | 0.00 | 93 | 1017.9 |
| 20260903134015 | 76 | 221 | 0.0 | 0.0 | 0.00 | 0.00 | 0.00 | 94 | 1017.9 |
| 20260903133013 | 75 | 188 | 0.0 | 0.0 | 0.00 | 0.00 | 0.00 | 96 | 1017.9 |
| 20260903132009 | 75 | 190 | 2.0 | 2.0 | 0.00 | 0.00 | 0.00 | 96 | 1018.2 |
| 20260903131008 | 75 | 136 | 0.0 | 0.0 | 0.00 | 0.00 | 0.00 | 96 | 1018.0 |
| 20260903130009 | 76 | 231 | 0.0 | 0.0 | 0.00 | 0.00 | 0.00 | 95 | 1018.5 |
| 20260903125008 | 76 | 204 | 0.0 | 0.0 | 0.00 | 0.00 | 0.00 | 95 | 1018.4 |
| 20260903124008 | 76 | 246 | 0.0 | 0.0 | 0.00 | 0.00 | 0.00 | 94 | 1018.8 |
| 20260903123007 | 75 | 224 | 1.0 | 2.0 | 0.00 | 0.00 | 0.00 | 99 | 1018.8 |
| 20260903122007 | 73 | 220 | 0.0 | 0.0 | 0.00 | 0.00 | 0.00 | 99 | 1018.8 |
| 20260903121004 | 72 | 258 | 0.0 | 0.0 | 0.00 | 0.00 | 0.00 | 99 | 1019.1 |
| 20260903120002 | 71 | 209 | 0.0 | 0.0 | 0.00 | 0.00 | 0.00 | 99 | 1018.9 |
| 20260903115001 | 71 | 326 | 2.0 | 3.0 | 0.00 | 0.00 | 0.00 | 99 | 1019.0 |
| 20260903113958 | 71 | 254 | 1.0 | 1.0 | 0.00 | 0.00 | 0.00 | 99 | 1018.8 |
| 20260903112955 | 71 | 235 | 2.0 | 2.0 | 0.00 | 0.00 | 0.00 | 99 | 1019.0 |
| 20260903111950 | 71 | 231 | 2.0 | 2.0 | 0.00 | 0.00 | 0.00 | 99 | 1018.7 |
| 20260903110947 | 71 | 224 | 0.0 | 0.0 | 0.00 | 0.00 | 0.00 | 99 | 1018.5 |
| 20260903105943 | 71 | 254 | 0.0 | 0.0 | 0.00 | 0.00 | 0.00 | 99 | 1018.1 |
| 20260903104937 | 71 | 240 | 0.0 | 0.0 | 0.00 | 0.00 | 0.00 | 99 | 1017.9 |
| 20260903103934 | 71 | 255 | 0.0 | 0.0 | 0.00 | 0.00 | 0.00 | 99 | 1017.6 |
| 20260903102931 | 70 | 276 | 0.0 | 0.0 | 0.00 | 0.00 | 0.00 | 99 | 1017.5 |
| 20260903101931 | 70 | 236 | 0.0 | 0.0 | 0.00 | 0.00 | 0.00 | 99 | 1017.0 |
| 20260903100928 | 69 | 215 | 0.0 | 0.0 | 0.00 | 0.00 | 0.00 | 99 | 1016.7 |
| 20260903095925 | 69 | 222 | 0.0 | 0.0 | 0.00 | 0.00 | 0.00 | 99 | 1016.6 |
| 20260903094921 | 69 | 213 | 0.0 | 0.0 | 0.00 | 0.00 | 0.00 | 99 | 1016.9 |
| 20260903093917 | 69 | 227 | 0.0 | 0.0 | 0.00 | 0.00 | 0.00 | 99 | 1016.7 |
| 20260903092913 | 68 | 220 | 0.0 | 0.0 | 0.00 | 0.00 | 0.00 | 99 | 1016.9 |
| 20260903091912 | 69 | 210 | 0.0 | 0.0 | 0.00 | 0.00 | 0.00 | 99 | 1017.0 |
| 20260903090906 | 69 | 225 | 0.0 | 0.0 | 0.00 | 0.00 | 0.00 | 99 | 1017.0 |
| 20260903085905 | 69 | 224 | 0.0 | 0.0 | 0.00 | 0.00 | 0.00 | 99 | 1017.1 |
| 20260903084904 | 69 | 230 | 0.0 | 0.0 | 0.00 | 0.00 | 0.00 | 99 | 1016.9 |
| 20260903083904 | 69 | 235 | 0.0 | 0.0 | 0.00 | 0.00 | 0.00 | 99 | 1017.0 |
| 20260903082905 | 69 | 214 | 0.0 | 0.0 | 0.00 | 0.00 | 0.00 | 99 | 1016.8 |
| 20260903081901 | 69 | 221 | 0.0 | 0.0 | 0.00 | 0.00 | 0.00 | 99 | 1016.7 |
| 20260903080858 | 69 | 223 | 0.0 | 0.0 | 0.00 | 0.00 | 0.00 | 99 | 1016.8 |
| 20260903075855 | 69 | 215 | 0.0 | 0.0 | 0.00 | 0.00 | 0.00 | 99 | 1017.0 |
| 20260903074850 | 70 | 215 | 0.0 | 0.0 | 0.00 | 0.00 | 0.00 | 99 | 1017.2 |
| 20260903073846 | 70 | 220 | 0.0 | 0.0 | 0.00 | 0.00 | 0.00 | 99 | 1017.0 |
| 20260903072843 | 70 | 228 | 0.0 | 0.0 | 0.00 | 0.00 | 0.00 | 99 | 1017.0 |
| 20260903071841 | 70 | 236 | 0.0 | 0.0 | 0.00 | 0.00 | 0.00 | 99 | 1016.9 |
| 20260903070838 | 70 | 228 | 0.0 | 0.0 | 0.00 | 0.00 | 0.00 | 99 | 1016.9 |
| 20260903065833 | 70 | 224 | 0.0 | 0.0 | 0.00 | 0.00 | 0.00 | 99 | 1016.8 |
| 20260903064832 | 71 | 219 | 0.0 | 0.0 | 0.00 | 0.00 | 0.00 | 99 | 1016.6 |
| 20260903063829 | 70 | 209 | 0.0 | 0.0 | 0.00 | 0.00 | 0.00 | 99 | 1016.6 |
| 20260903062826 | 71 | 214 | 0.0 | 0.0 | 0.00 | 0.00 | 0.00 | 99 | 1016.6 |
| 20260903061822 | 71 | 216 | 0.0 | 0.0 | 0.00 | 0.00 | 0.00 | 99 | 1016.5 |
| 20260903060818 | 71 | 221 | 0.0 | 0.0 | 0.00 | 0.00 | 0.00 | 99 | 1016.7 |
| 20260903055814 | 71 | 212 | 0.0 | 0.0 | 0.00 | 0.00 | 0.00 | 99 | 1016.9 |
| 20260903054814 | 71 | 216 | 0.0 | 0.0 | 0.00 | 0.00 | 0.00 | 99 | 1016.9 |
| 20260903053811 | 71 | 218 | 0.0 | 0.0 | 0.00 | 0.00 | 0.00 | 99 | 1017.0 |
| 20260903052807 | 71 | 224 | 0.0 | 0.0 | 0.00 | 0.00 | 0.00 | 99 | 1017.3 |
| 20260903051804 | 71 | 206 | 0.0 | 0.0 | 0.00 | 0.00 | 0.00 | 99 | 1017.0 |
| 20260903050800 | 72 | 224 | 0.0 | 0.0 | 0.00 | 0.00 | 0.00 | 99 | 1017.2 |
| 20260903045800 | 72 | 221 | 0.0 | 0.0 | 0.00 | 0.00 | 0.00 | 99 | 1017.3 |
| 20260903044758 | 72 | 219 | 0.0 | 0.0 | 0.00 | 0.00 | 0.00 | 99 | 1017.5 |
| 20260903043756 | 72 | 229 | 0.0 | 0.0 | 0.00 | 0.00 | 0.00 | 99 | 1017.8 |
| 20260903042754 | 72 | 227 | 0.0 | 0.0 | 0.00 | 0.00 | 0.00 | 99 | 1017.6 |
| 20260903041752 | 71 | 219 | 0.0 | 0.0 | 0.00 | 0.00 | 0.00 | 99 | 1017.9 |
| 20260903040748 | 71 | 207 | 0.0 | 0.0 | 0.00 | 0.00 | 0.00 | 99 | 1017.5 |
| 20260903035745 | 71 | 229 | 0.0 | 0.0 | 0.00 | 0.10 | 0.10 | 99 | 1017.5 |
| 20260903034740 | 71 | 232 | 0.0 | 0.0 | 0.00 | 0.10 | 0.10 | 99 | 1017.4 |
| 20260903033736 | 71 | 216 | 0.0 | 0.0 | 0.00 | 0.10 | 0.10 | 99 | 1017.4 |
| 20260903032731 | 71 | 214 | 0.0 | 0.0 | 0.00 | 0.10 | 0.10 | 99 | 1017.6 |
| 20260903031729 | 71 | 226 | 0.0 | 0.0 | 0.00 | 0.10 | 0.10 | 99 | 1017.5 |
| 20260903030725 | 71 | 219 | 0.0 | 0.0 | 0.00 | 0.10 | 0.10 | 99 | 1017.4 |
| 20260903025722 | 71 | 211 | 0.0 | 0.0 | 0.00 | 0.10 | 0.10 | 99 | 1017.4 |
| 20260903024717 | 71 | 215 | 0.0 | 0.0 | 0.00 | 0.10 | 0.10 | 99 | 1017.4 |
| 20260903023712 | 72 | 227 | 0.0 | 0.0 | 0.00 | 0.10 | 0.10 | 98 | 1017.1 |
| 20260903022707 | 72 | 242 | 0.0 | 0.0 | 0.00 | 0.10 | 0.10 | 97 | 1017.1 |
| 20260903021706 | 73 | 228 | 0.0 | 0.0 | 0.00 | 0.10 | 0.10 | 96 | 1017.1 |
| 20260903020702 | 73 | 204 | 0.0 | 0.0 | 0.00 | 0.10 | 0.10 | 96 | 1017.1 |
| 20260903015657 | 73 | 223 | 0.0 | 0.0 | 0.00 | 0.10 | 0.10 | 97 | 1016.9 |
| 20260903014653 | 72 | 140 | 0.0 | 0.0 | 0.00 | 0.10 | 0.10 | 98 | 1016.8 |
| 20260903013648 | 72 | 200 | 0.0 | 0.0 | 0.00 | 0.10 | 0.10 | 99 | 1017.3 |
| 20260903012646 | 72 | 205 | 0.0 | 0.0 | 0.00 | 0.10 | 0.10 | 99 | 1017.4 |
| 20260903011646 | 73 | 229 | 0.0 | 0.0 | 0.00 | 0.10 | 0.10 | 99 | 1017.6 |
| 20260903010641 | 73 | 204 | 0.0 | 0.0 | 0.00 | 0.10 | 0.10 | 99 | 1017.5 |
| 20260903005640 | 73 | 208 | 0.0 | 0.0 | 0.00 | 0.10 | 0.10 | 99 | 1017.6 |
| 20260903004637 | 73 | 206 | 0.0 | 0.0 | 0.00 | 0.10 | 0.10 | 99 | 1017.5 |
| 20260903003633 | 74 | 222 | 0.0 | 0.0 | 0.00 | 0.10 | 0.10 | 99 | 1017.7 |
| 20260903002630 | 74 | 212 | 0.0 | 0.0 | 0.00 | 0.10 | 0.10 | 99 | 1017.7 |
| 20260903001624 | 74 | 214 | 0.0 | 0.0 | 0.00 | 0.10 | 0.10 | 99 | 1017.5 |
| 20260903000620 | 75 | 224 | 0.0 | 0.0 | 0.00 | 0.10 | 0.10 | 99 | 1017.9 |
| 20260902235618 | 75 | 218 | 0.0 | 0.0 | 0.00 | 0.10 | 0.10 | 98 | 1018.1 |
| 20260902234613 | 76 | 238 | 0.0 | 0.0 | 0.00 | 0.10 | 0.10 | 97 | 1018.1 |
| 20260902233613 | 76 | 222 | 0.0 | 0.0 | 0.00 | 0.10 | 0.10 | 98 | 1017.4 |
| 20260902232613 | 76 | 214 | 0.0 | 0.0 | 0.00 | 0.10 | 0.10 | 98 | 1017.5 |
| 20260902231613 | 76 | 206 | 0.0 | 0.0 | 0.00 | 0.10 | 0.10 | 97 | 1017.7 |
| 20260902230608 | 76 | 209 | 0.0 | 0.0 | 0.00 | 0.10 | 0.10 | 97 | 1018.1 |
| 20260902225602 | 77 | 221 | 0.0 | 0.0 | 0.00 | 0.10 | 0.10 | 96 | 1018.1 |
| 20260902224600 | 77 | 243 | 0.0 | 0.0 | 0.00 | 0.10 | 0.10 | 96 | 1018.1 |
| 20260902223558 | 77 | 228 | 0.0 | 0.0 | 0.00 | 0.10 | 0.10 | 95 | 1018.1 |
| 20260902222556 | 78 | 223 | 0.0 | 0.0 | 0.00 | 0.10 | 0.10 | 95 | 1018.0 |
| 20260902221555 | 78 | 221 | 0.0 | 0.0 | 0.00 | 0.10 | 0.10 | 94 | 1017.6 |
| 20260902220551 | 78 | 221 | 0.0 | 0.0 | 0.00 | 0.10 | 0.10 | 94 | 1017.9 |
| 20260902215548 | 79 | 217 | 0.0 | 0.0 | 0.00 | 0.10 | 0.10 | 93 | 1017.8 |
| 20260902214543 | 78 | 228 | 0.0 | 0.0 | 0.00 | 0.10 | 0.10 | 95 | 1018.2 |
| 20260902213538 | 78 | 219 | 0.0 | 0.0 | 0.00 | 0.10 | 0.10 | 96 | 1018.4 |
| 20260902212533 | 77 | 242 | 1.0 | 1.0 | 0.00 | 0.10 | 0.10 | 96 | 1018.6 |
| 20260902211531 | 76 | 220 | 0.0 | 0.0 | 0.00 | 0.10 | 0.10 | 98 | 1018.5 |
| 20260902210526 | 75 | 227 | 0.0 | 0.0 | 0.00 | 0.10 | 0.10 | 99 | 1018.0 |
| 20260902205525 | 75 | 227 | 0.0 | 0.0 | 0.00 | 0.10 | 0.10 | 99 | 1017.9 |
| 20260902204521 | 74 | 215 | 0.0 | 0.0 | 0.00 | 0.10 | 0.10 | 99 | 1018.1 |
| 20260902203517 | 73 | 216 | 0.0 | 0.0 | 0.00 | 0.10 | 0.10 | 99 | 1017.8 |
| 20260902202512 | 74 | 220 | 0.0 | 0.0 | 0.00 | 0.10 | 0.10 | 99 | 1018.1 |
| 20260902201509 | 74 | 231 | 0.0 | 0.0 | 0.00 | 0.10 | 0.10 | 99 | 1018.2 |
| 20260902200504 | 74 | 236 | 0.0 | 0.0 | 0.00 | 0.10 | 0.10 | 99 | 1018.5 |
| 20260902195502 | 74 | 216 | 0.0 | 0.0 | 0.00 | 0.10 | 0.10 | 99 | 1018.6 |